DK4DAX-2 Weather Reports


time (UTC)temp
C
wind
direction
speed
KPH
gust
KPH
rain 1hr
cm
rain 24hr
cm
rain mn
cm
humidity
%
barometer
mb
20260502163001 22 101 0.0 1.6 0.00 0.03 0.03 52 1007.2
20260502161500 23 140 0.0 3.2 0.00 0.03 0.03 50 1007.5
20260502151501 23 121 1.6 3.2 0.00 0.03 0.03 57 1008.5
20260502123001 28 132 0.0 3.2 0.00 0.00 0.00 23 1009.8
20260502121501 32 190 3.2 6.4 0.00 0.00 0.00 18 1009.9
20260502114501 32 127 0.0 6.4 0.00 0.00 0.00 16 1010.3
20260502113002 34 170 3.2 4.8 0.00 0.00 0.00 14 1010.5
20260502111501 33 153 3.2 6.4 0.00 0.00 0.00 14 1010.7
20260502110001 32 168 0.0 8.0 0.00 0.00 0.00 16 1011.0
20260502104501 30 251 1.6 6.4 0.00 0.00 0.00 21 1010.9
20260502103001 27 282 0.0 6.4 0.00 0.00 0.00 21 1011.2
20260502101501 26 115 0.0 4.8 0.00 0.00 0.00 22 1011.6
20260502091501 24 216 1.6 6.4 0.00 0.00 0.00 25 1012.1
20260502071501 17 209 1.6 6.4 0.00 0.00 0.00 38 1012.5
20260502070001 17 110 1.6 4.8 0.00 0.00 0.00 38 1012.7
20260502064501 16 283 0.0 6.4 0.00 0.00 0.00 39 1012.6
20260502063001 16 271 0.0 6.4 0.00 0.00 0.00 40 1012.8
20260502061501 16 157 3.2 6.4 0.00 0.00 0.00 42 1012.9
20260502060001 15 119 0.0 3.2 0.00 0.00 0.00 49 1012.7
20260502054501 14 262 0.0 3.2 0.00 0.00 0.00 50 1013.0
20260502053001 13 279 0.0 4.8 0.00 0.00 0.00 53 1013.0
20260502051501 12 297 0.0 3.2 0.00 0.00 0.00 56 1013.1
20260502050002 12 165 0.0 1.6 0.00 0.00 0.00 57 1012.6
20260502044501 12 55 0.0 3.2 0.00 0.00 0.00 57 1012.5
20260502043001 12 280 0.0 3.2 0.00 0.00 0.00 58 1012.6
20260502041501 11 203 0.0 1.6 0.00 0.00 0.00 59 1012.6
20260502040001 11 270 0.0 1.6 0.00 0.00 0.00 59 1012.7
20260502034501 11 125 0.0 3.2 0.00 0.00 0.00 59 1012.7
20260502033001 11 0 0.0 0.0 0.00 0.00 0.00 59 1013.0
20260502031501 11 135 0.0 1.6 0.00 0.00 0.00 59 1013.1
20260502030001 12 0 0.0 0.0 0.00 0.00 0.00 57 1013.3
20260502024502 12 0 0.0 0.0 0.00 0.00 0.00 57 1013.3
20260502023001 12 0 0.0 0.0 0.00 0.00 0.00 56 1013.4
20260502021501 12 0 0.0 0.0 0.00 0.00 0.00 54 1013.3
20260502020001 12 0 0.0 0.0 0.00 0.00 0.00 53 1013.2
20260502014501 12 124 0.0 3.2 0.00 0.00 0.00 52 1013.3
20260502013002 12 46 0.0 1.6 0.00 0.00 0.00 52 1013.5
20260502011501 12 0 0.0 0.0 0.00 0.00 0.00 52 1013.7
20260502010002 12 0 0.0 0.0 0.00 0.00 0.00 52 1013.6
20260502004501 13 0 0.0 0.0 0.00 0.00 0.00 51 1013.6
20260502003001 13 0 0.0 0.0 0.00 0.00 0.00 50 1014.0
20260502001501 13 0 0.0 0.0 0.00 0.00 0.00 48 1014.2
20260502000001 13 0 0.0 0.0 0.00 0.00 0.00 46 1014.5
20260501234501 13 0 0.0 0.0 0.00 0.00 0.00 45 1014.3
20260501233001 14 0 0.0 0.0 0.00 0.00 0.00 44 1014.4
20260501231501 14 0 0.0 0.0 0.00 0.00 0.00 43 1014.6
20260501230002 15 124 0.0 1.6 0.00 0.00 0.00 43 1014.3
20260501224501 15 0 0.0 0.0 0.00 0.00 0.00 43 1014.7
20260501223002 15 0 0.0 0.0 0.00 0.00 0.00 42 1014.7
20260501221501 15 0 0.0 0.0 0.00 0.00 0.00 41 1014.6
20260501220002 15 0 0.0 0.0 0.00 0.00 0.00 40 1014.7
20260501214501 15 0 0.0 0.0 0.00 0.00 0.00 39 1014.7
20260501213001 16 0 0.0 0.0 0.00 0.00 0.00 37 1014.7
20260501211501 16 0 0.0 0.0 0.00 0.00 0.00 35 1014.8
20260501210002 16 0 0.0 0.0 0.00 0.00 0.00 33 1014.8
20260501204501 17 135 0.0 1.6 0.00 0.00 0.00 31 1014.8
20260501203001 17 0 0.0 0.0 0.00 0.00 0.00 29 1014.8
20260501201501 17 0 0.0 0.0 0.00 0.00 0.00 28 1014.8
20260501200001 18 0 0.0 0.0 0.00 0.00 0.00 28 1014.6
20260501194501 18 0 0.0 0.0 0.00 0.00 0.00 26 1014.8
20260501193001 19 0 0.0 0.0 0.00 0.00 0.00 22 1014.6
20260501191501 20 0 0.0 0.0 0.00 0.00 0.00 20 1014.6
20260501190001 21 46 0.0 1.6 0.00 0.00 0.00 18 1014.5
20260501184502 22 234 0.0 4.8 0.00 0.00 0.00 14 1014.6
20260501183001 22 61 0.0 3.2 0.00 0.00 0.00 13 1014.5
20260501181501 22 96 0.0 3.2 0.00 0.00 0.00 13 1014.5
20260501180002 22 333 0.0 8.0 0.00 0.00 0.00 16 1014.6
20260501174502 23 29 1.6 6.4 0.00 0.00 0.00 15 1014.5
20260501173002 23 304 1.6 8.0 0.00 0.00 0.00 15 1014.5
20260501171502 23 309 1.6 6.4 0.00 0.00 0.00 15 1014.5
20260501170002 23 293 4.8 8.0 0.00 0.00 0.00 15 1014.4
20260501164501 23 297 0.0 12.9 0.00 0.00 0.00 15 1014.4